Wind_Speed
9 9 10 10 9 9 9 10 11 12 12 11 10 10 9 10 13 13 14 12 12 11 9 6 4 6 4 3 13 9 2 7 9 12 14 11 12 10 13 14 7 8 12 13 12
9 8 8 9 9 9 9 8 9 10 11 10 11 11 10 9 12 14 13 12 13 13 11 9 5 4 3 6 8 8 7 8 10 13 14 11 10 12 13 10 9 13 14 11 13
9 8 7 8 7 8 7 7 6 8 8 9 10 11 10 8 9 17 15 13 14 15 16 13 6 5 3 7 9 4 5 10 11 11 12 13 11 10 9 7 9 15 9 10 14
9 9 8 8 9 9 8 7 6 6 7 7 8 10 10 9 3 14 16 15 14 14 16 15 10 6 6 6 8 2 10 9 9 14 12 11 12 11 6 8 10 11 10 10 14
12 10 9 9 9 9 10 8 7 7 6 7 7 10 12 11 15 8 17 16 14 15 17 17 10 6 6 4 10 7 9 7 9 12 11 10 10 11 9 9 13 10 11 15 14
12 10 8 8 8 9 10 10 8 8 6 7 8 10 11 8 14 13 15 17 16 15 17 14 10 9 4 6 9 6 8 7 6 12 12 11 9 10 10 12 11 8 15 15 13
12 12 12 11 9 8 8 9 9 8 7 7 9 11 13 16 14 14 13 18 18 15 13 18 13 11 4 6 5 6 6 5 8 13 11 9 11 7 11 12 11 12 15 15 14
13 11 11 10 9 9 9 9 8 7 7 7 8 11 7 14 15 14 14 18 19 19 18 18 22 13 10 7 6 14 2 7 13 14 10 11 15 14 13 11 12 14 13 14 14
15 13 11 9 9 9 9 8 8 6 5 6 8 9 9 13 14 14 13 11 16 18 17 17 21 14 12 10 15 13 14 10 13 16 11 11 12 18 13 10 10 13 14 12 14
16 14 11 10 8 8 8 8 6 5 3 5 7 7 10 9 13 14 14 12 11 12 14 16 15 14 16 18 23 19 20 12 13 12 12 17 8 16 14 13 10 11 13 13 15
16 15 12 9 8 7 7 5 4 8 5 7 7 5 9 13 13 13 15 13 10 11 11 14 16 21 20 20 12 10 13 12 15 13 11 8 13 11 12 12 13 11 11 12 15
15 14 11 9 8 6 6 1 4 8 2 10 12 14 10 9 10 13 14 12 12 13 14 14 20 17 17 20 16 10 16 21 14 15 10 10 11 12 12 12 14 11 12 12 15
16 14 11 8 6 5 5 5 4 3 5 7 6 6 6 12 10 14 15 13 12 15 18 15 13 15 17 15 16 17 17 16 11 13 11 7 12 11 13 13 13 12 14 14 16
17 15 11 7 5 4 3 3 2 5 5 8 12 10 11 10 10 13 13 12 12 16 17 18 13 14 16 19 17 20 18 8 15 11 20 16 10 14 15 15 15 15 16 15 17
17 14 10 7 5 3 3 2 5 11 6 9 13 13 14 13 14 12 13 13 11 12 17 17 15 18 16 18 17 20 12 19 13 19 18 13 17 12 17 18 18 18 18 17 18
17 12 8 5 4 4 3 3 9 5 3 10 11 13 16 13 12 12 14 12 9 13 16 9 15 14 15 17 17 19 8 14 19 20 22 24 19 16 17 17 19 18 21 20 20
16 10 6 4 4 4 6 11 5 11 7 9 14 15 15 14 12 14 14 14 11 14 15 17 11 15 17 16 16 17 17 16 15 17 16 23 25 24 12 10 15 12 20 22 22
16 9 5 4 4 6 10 6 10 4 6 8 15 16 18 15 13 15 14 14 10 13 14 17 17 19 14 21 18 21 24 20 16 12 19 24 24 23 20 10 9 7 9 19 22
14 10 4 3 5 8 8 12 10 6 10 10 13 19 15 18 12 15 15 14 11 10 8 10 5 16 12 17 19 18 25 25 26 25 14 19 25 20 13 18 13 9 11 15 20
12 6 6 4 7 10 7 16 6 10 10 14 17 19 18 19 14 17 15 9 9 8 6 3 6 9 15 14 17 19 11 21 23 16 15 17 17 20 20 18 18 10 7 13 16
10 3 14 7 8 10 12 10 11 9 11 14 17 15 16 18 17 18 15 8 11 7 8 7 12 11 10 15 17 18 17 18 23 23 15 11 15 20 11 7 15 21 11 11 14
7 3 18 10 7 9 13 13 11 10 11 12 10 14 16 14 15 16 12 7 14 9 11 10 10 12 15 12 12 9 14 23 17 19 19 25 2 6 9 8 8 6 10 16 18
7 9 19 14 10 12 13 12 10 12 12 13 12 12 10 14 12 12 9 15 9 7 7 9 12 12 10 9 12 15 14 13 17 19 18 17 8 14 9 6 6 3 4 11 11
8 4 9 13 15 14 13 15 15 12 13 12 13 12 12 13 10 13 10 14 14 10 14 15 15 16 10 2 2 18 13 12 15 19 18 20 19 8 14 12 7 11 14 17 16
9 6 13 7 13 16 15 16 19 15 14 14 12 14 15 13 11 11 11 8 13 17 15 11 17 14 19 5 6 5 12 13 14 15 17 14 15 6 8 12 12 10 6 9 18
11 10 13 19 15 14 17 21 21 18 16 17 13 15 15 13 14 11 14 12 12 10 14 15 18 15 17 14 15 15 15 15 13 13 14 17 15 4 10 15 10 12 10 7 5
17 17 21 15 18 19 19 21 21 19 17 14 16 16 12 13 12 10 12 11 10 12 11 15 16 15 22 21 20 23 22 21 20 19 18 19 8 9 6 22 20 15 14 12 9
Wind_Direction
332 328 324 320 314 310 305 299 294 286 275 256 246 241 237 228 224 219 211 199 197 185 182 182 132 135 88 174 149 134 204 149 121 134 137 130 120 113 124 118 118 88 126 144 125
339 332 326 322 320 316 309 301 295 287 280 267 243 236 231 223 223 227 216 200 192 182 177 170 145 142 135 171 192 204 134 170 131 122 141 131 125 121 119 114 103 124 145 134 127
331 325 314 311 310 310 304 303 299 289 276 270 251 232 225 218 210 231 216 203 192 184 172 168 195 185 217 183 210 172 138 135 121 125 137 139 129 126 125 122 129 143 131 139 137
331 321 313 301 304 303 296 294 295 286 280 266 247 229 218 201 181 224 212 205 193 187 173 171 178 191 216 209 208 218 113 127 138 138 141 136 129 132 103 143 146 143 126 130 141
335 326 316 309 301 300 290 288 288 283 269 256 236 226 210 203 226 217 205 204 192 182 173 165 192 183 213 195 179 172 147 127 149 148 148 143 131 141 127 136 134 139 133 145 148
331 322 313 306 304 299 298 289 282 277 261 240 229 214 205 194 228 219 203 199 191 185 177 181 185 209 234 185 189 190 168 168 150 165 159 156 157 145 151 140 133 127 150 150 158
334 332 325 313 310 300 293 293 290 281 258 230 220 210 195 228 223 215 202 197 192 183 193 180 207 201 202 204 218 182 178 193 184 171 170 174 167 177 155 153 141 145 155 159 163
339 334 328 321 318 308 300 296 293 285 258 236 209 200 193 219 217 208 199 199 199 194 190 203 192 184 200 223 191 186 154 219 200 190 187 215 173 167 165 163 164 160 163 166 170
343 336 336 326 318 306 301 297 296 286 258 226 204 184 260 220 215 204 189 188 198 200 203 201 196 200 210 202 195 190 174 208 193 190 197 205 198 169 164 168 173 175 174 173 176
354 345 336 328 323 308 298 299 308 294 214 200 189 157 259 209 180 191 180 178 183 195 199 197 200 205 208 207 211 195 180 199 194 192 205 191 224 151 170 178 183 185 186 183 186
350 347 343 328 317 299 288 280 353 342 197 170 179 170 159 176 202 186 194 176 182 185 189 194 200 211 209 209 244 236 214 200 201 204 223 223 194 172 179 183 183 195 197 198 197
343 343 344 334 321 312 294 296 257 236 170 231 216 182 188 183 177 186 190 183 190 196 190 199 214 214 210 222 230 224 223 189 178 211 216 213 219 205 193 195 195 200 207 205 198
344 339 342 334 319 316 301 279 265 194 126 255 197 199 206 173 192 195 190 188 211 200 204 209 221 207 207 215 212 218 221 200 205 191 219 229 204 189 200 202 203 211 208 203 201
337 329 331 329 322 315 284 269 224 162 184 212 187 189 174 158 183 199 179 199 210 209 211 214 219 196 212 215 218 226 222 228 200 215 215 214 232 220 214 208 211 214 210 205 201
336 325 321 319 296 263 249 224 164 157 246 164 170 194 186 164 188 197 188 197 204 201 205 211 209 211 214 212 212 221 231 219 224 234 250 222 234 227 231 216 218 219 213 212 210
333 327 316 307 284 253 189 162 155 215 190 179 196 182 180 187 186 189 194 182 205 207 214 220 213 208 207 214 215 210 225 227 232 239 233 236 246 207 221 228 218 223 218 210 213
333 329 306 284 247 203 151 142 198 252 151 186 188 184 186 186 189 170 177 187 177 193 206 207 217 208 205 204 212 208 207 215 221 228 240 234 228 234 221 223 221 221 212 211 210
333 326 295 247 206 184 153 175 244 233 205 171 181 187 195 182 189 183 179 182 208 220 198 197 202 201 209 204 209 212 215 223 211 229 232 229 249 240 220 230 220 229 214 211 212
332 325 294 233 191 180 163 218 231 224 202 190 184 190 191 193 191 190 195 209 186 200 289 202 191 184 208 202 209 212 224 229 260 268 277 247 215 235 231 231 226 218 221 219 217
332 318 254 224 194 186 213 230 242 206 190 188 191 195 196 200 200 196 192 193 204 205 194 256 166 209 210 203 214 226 232 223 235 257 259 237 226 216 215 215 214 212 225 214 214
327 344 258 238 202 200 219 241 227 211 182 194 206 202 212 198 205 203 200 182 203 218 215 228 238 175 194 207 208 216 222 224 235 223 249 238 244 234 188 162 217 220 228 213 223
314 240 268 241 220 224 235 238 212 217 204 200 197 216 206 195 203 203 204 216 210 198 209 218 239 195 215 183 212 213 220 222 229 230 242 254 23 145 123 164 144 188 218 212 206
299 237 282 227 221 231 233 221 206 210 199 202 204 195 183 197 192 202 190 207 198 183 211 209 223 221 174 216 226 228 229 229 228 243 245 234 195 149 132 140 194 179 229 223 220
295 290 261 241 229 248 233 227 219 201 202 194 201 191 195 205 208 202 210 218 216 210 213 211 235 259 267 360 220 205 213 216 227 220 231 235 231 166 205 161 219 230 237 237 237
275 255 244 233 253 242 231 224 216 211 209 197 200 201 205 207 211 215 209 218 223 231 224 221 244 247 252 229 245 200 211 215 228 236 255 227 265 114 210 226 212 228 224 231 224
268 266 256 246 249 223 223 215 219 214 210 207 210 207 204 209 214 229 222 226 223 233 221 230 243 251 244 247 236 240 228 236 241 240 245 251 259 329 273 258 233 223 240 260 262
274 274 262 250 242 233 224 220 216 215 211 211 206 198 202 204 187 197 200 211 226 209 223 225 235 232 249 242 242 243 240 244 245 241 239 243 265 292 299 271 260 245 242 242 255
Height
3151 3150 3148 3147 3146 3145 3145 3144 3143 3143 3143 3144 3144 3145 3146 3148 3149 3150 3151 3154 3157 3160 3162 3163 3164 3165 3166 3171 3169 3168 3166 3169 3168 3170 3176 3178 3179 3179 3179 3180 3182 3182 3182 3181 3180
3151 3148 3147 3145 3144 3144 3142 3142 3141 3140 3141 3142 3143 3144 3145 3147 3148 3149 3151 3153 3155 3159 3162 3164 3165 3166 3170 3172 3172 3166 3170 3169 3170 3172 3176 3178 3180 3180 3182 3182 3183 3185 3183 3182 3182
3149 3147 3145 3143 3141 3141 3140 3140 3140 3139 3138 3140 3141 3143 3144 3146 3148 3146 3149 3151 3154 3157 3160 3164 3168 3169 3171 3173 3172 3168 3166 3170 3173 3175 3177 3179 3181 3182 3183 3184 3184 3184 3183 3184 3184
3148 3146 3144 3143 3141 3138 3138 3137 3137 3137 3137 3137 3139 3141 3142 3145 3151 3145 3147 3150 3153 3157 3160 3163 3166 3170 3171 3173 3172 3169 3169 3172 3174 3177 3178 3180 3182 3183 3185 3185 3184 3183 3183 3185 3186
3146 3144 3143 3141 3140 3138 3136 3135 3135 3135 3135 3136 3136 3138 3141 3144 3144 3144 3145 3148 3152 3156 3159 3163 3168 3171 3172 3173 3173 3170 3173 3174 3176 3178 3179 3180 3182 3184 3186 3186 3184 3184 3185 3187 3191
3142 3140 3139 3138 3137 3137 3136 3135 3134 3133 3133 3133 3134 3136 3139 3143 3141 3143 3145 3148 3151 3155 3159 3162 3168 3173 3171 3173 3174 3171 3174 3176 3176 3178 3180 3181 3183 3184 3186 3186 3185 3185 3187 3190 3192
3141 3139 3137 3136 3135 3134 3133 3133 3133 3132 3131 3131 3133 3134 3136 3138 3139 3142 3144 3147 3151 3155 3158 3160 3164 3169 3173 3173 3173 3173 3175 3175 3176 3177 3179 3179 3182 3181 3186 3186 3185 3187 3189 3192 3193
3140 3138 3136 3134 3133 3133 3132 3132 3131 3131 3131 3131 3132 3133 3137 3135 3137 3141 3143 3146 3149 3153 3155 3157 3161 3164 3171 3172 3174 3173 3175 3177 3175 3177 3178 3179 3178 3183 3185 3187 3187 3188 3190 3191 3193
3138 3136 3135 3133 3132 3130 3130 3130 3130 3130 3131 3130 3132 3134 3137 3134 3137 3139 3143 3146 3149 3153 3155 3157 3160 3165 3170 3171 3172 3173 3175 3175 3176 3176 3177 3178 3179 3180 3184 3187 3189 3189 3190 3191 3193
3137 3135 3133 3131 3130 3129 3129 3129 3129 3129 3129 3131 3132 3137 3135 3135 3138 3139 3143 3147 3149 3152 3156 3158 3161 3165 3167 3168 3163 3165 3169 3173 3176 3177 3176 3175 3172 3177 3183 3185 3188 3190 3191 3191 3192
3136 3133 3132 3130 3128 3127 3127 3128 3131 3130 3129 3132 3136 3134 3134 3135 3135 3139 3141 3146 3150 3153 3157 3158 3162 3162 3163 3164 3163 3163 3165 3172 3176 3176 3177 3175 3176 3179 3182 3184 3187 3190 3191 3192 3193
3134 3132 3129 3128 3127 3126 3126 3128 3128 3129 3131 3129 3129 3131 3132 3136 3137 3141 3142 3148 3150 3153 3156 3160 3158 3160 3162 3164 3164 3166 3165 3171 3175 3177 3177 3177 3178 3178 3180 3183 3185 3188 3190 3192 3193
3133 3130 3129 3126 3125 3125 3125 3126 3126 3127 3130 3130 3131 3134 3133 3136 3140 3141 3142 3147 3150 3152 3154 3155 3157 3158 3160 3163 3165 3165 3163 3165 3170 3174 3177 3175 3176 3178 3179 3182 3184 3186 3188 3190 3191
3131 3128 3127 3126 3126 3124 3124 3124 3125 3127 3130 3130 3129 3133 3134 3138 3141 3141 3142 3148 3149 3150 3153 3154 3154 3156 3160 3162 3165 3163 3165 3166 3168 3172 3170 3173 3175 3175 3176 3179 3182 3184 3186 3188 3189
3129 3126 3124 3123 3124 3123 3123 3124 3126 3127 3123 3129 3131 3129 3134 3138 3138 3139 3142 3145 3147 3149 3152 3151 3152 3156 3158 3160 3163 3163 3163 3167 3170 3169 3167 3171 3169 3170 3174 3174 3177 3181 3183 3186 3187
3126 3124 3122 3122 3122 3122 3122 3124 3127 3132 3121 3127 3128 3130 3134 3135 3137 3137 3139 3142 3145 3147 3148 3149 3151 3153 3155 3158 3161 3163 3166 3169 3169 3168 3163 3166 3166 3163 3168 3170 3172 3175 3179 3183 3185
3124 3122 3120 3120 3121 3121 3122 3125 3131 3124 3124 3126 3127 3129 3132 3134 3136 3137 3138 3140 3141 3145 3145 3147 3149 3150 3152 3156 3159 3161 3164 3164 3164 3160 3158 3158 3161 3162 3166 3167 3169 3171 3173 3178 3182
3122 3120 3118 3118 3119 3120 3121 3128 3126 3120 3123 3123 3126 3129 3131 3133 3135 3137 3138 3138 3139 3140 3137 3142 3144 3146 3148 3151 3154 3156 3158 3154 3154 3151 3151 3155 3153 3155 3160 3166 3168 3169 3169 3174 3179
3120 3118 3117 3117 3118 3120 3122 3124 3120 3120 3121 3124 3126 3127 3129 3132 3134 3135 3136 3136 3138 3139 3139 3138 3137 3142 3146 3148 3152 3153 3154 3155 3150 3146 3146 3142 3148 3155 3159 3162 3166 3168 3170 3173 3175
3118 3117 3118 3116 3117 3119 3123 3119 3118 3119 3120 3122 3123 3125 3127 3130 3132 3132 3134 3136 3138 3139 3139 3138 3138 3141 3144 3147 3148 3148 3151 3153 3152 3149 3146 3144 3143 3147 3153 3159 3163 3166 3169 3171 3174
3116 3118 3115 3116 3116 3118 3119 3118 3118 3118 3119 3122 3122 3124 3124 3127 3130 3131 3133 3135 3137 3139 3140 3139 3139 3139 3143 3143 3143 3147 3148 3149 3148 3149 3144 3145 3143 3145 3148 3153 3158 3163 3168 3169 3172
3115 3120 3113 3115 3117 3117 3117 3116 3116 3117 3118 3121 3121 3123 3124 3126 3128 3129 3132 3133 3134 3137 3139 3139 3136 3135 3138 3138 3140 3140 3143 3146 3144 3148 3144 3142 3145 3146 3148 3154 3158 3160 3162 3163 3166
3112 3115 3110 3111 3114 3114 3115 3115 3115 3117 3117 3119 3121 3123 3124 3127 3129 3130 3130 3131 3133 3136 3137 3139 3137 3133 3136 3141 3142 3142 3143 3143 3143 3144 3142 3143 3144 3146 3151 3154 3155 3159 3160 3159 3162
3110 3113 3111 3108 3109 3110 3111 3112 3114 3114 3116 3117 3118 3120 3123 3126 3128 3130 3130 3130 3132 3134 3135 3137 3135 3132 3129 3132 3134 3137 3140 3143 3142 3143 3144 3143 3144 3143 3146 3149 3150 3153 3155 3157 3158
3107 3110 3108 3107 3107 3107 3108 3109 3110 3111 3114 3115 3117 3118 3120 3123 3125 3127 3129 3129 3130 3131 3134 3137 3136 3134 3131 3135 3137 3136 3138 3141 3143 3143 3141 3142 3143 3139 3139 3144 3147 3151 3153 3153 3154
3104 3105 3104 3101 3101 3101 3102 3103 3106 3108 3109 3112 3113 3115 3117 3119 3122 3123 3127 3129 3130 3131 3132 3134 3134 3134 3133 3133 3136 3137 3139 3141 3142 3143 3143 3143 3144 3143 3143 3143 3147 3148 3150 3150 3151
3097 3096 3095 3095 3097 3098 3097 3099 3101 3103 3107 3108 3111 3113 3115 3116 3117 3120 3123 3125 3126 3128 3130 3132 3131 3132 3131 3132 3132 3133 3136 3138 3139 3141 3143 3143 3144 3141 3144 3141 3144 3147 3147 3148 3149